Regional Weather Roundup
Issued by NWS

Home | Current Version | Previous Version | Text Only | Print | Product List | Glossary Off
Versions: 1 2 3 4 5 6 7 8 9 10 11 12 13 14 15 16 17 18 19 20 21 22 23 24 25 26 27 28 29 30 31 32 33 34 35 36 37 38 39 40 41 42 43 44 45 46 47 48 49 50

758
ASUS45 KCYS 211010
RWRWY

WYOMING REGIONAL WEATHER ROUNDUP
NATIONAL WEATHER SERVICE CHEYENNE WY
300 AM MST SAT JAN 21 2017

NOTE:  "FAIR" INDICATES FEW OR NO CLOUDS BELOW 12,000 FEET
WITH NO SIGNIFICANT WEATHER AND/OR OBSTRUCTIONS TO VISIBILITY.

WYZ001-211100-
YELLOWSTONE NATIONAL PARK

CITY           SKY/WX    TMP DP  RH WIND       PRES   REMARKS
LK YELLOWSTONE   N/A      6   4  91 CALM      29.33S
W YELLOWSTONE  NOT AVBL

$$
WYZ002>013-054>058-071-098>099-211100-
NORTHERN WYOMING

CITY           SKY/WX    TMP DP  RH WIND       PRES   REMARKS
JACKSON        CLOUDY    16  14  93 N5        29.35S WCI   9
CODY           FAIR      20  11  68 SW6       29.33F WCI  12
GREYBULL       FOG        9   7  92 CALM      29.38S VSB 1/4
WORLAND        FOG        5   4  95 SW6       29.36S VSB 3/4 WCI  -6
SHERIDAN       FAIR      19  13  77 SE9       29.35S WCI   8
BUFFALO        FAIR      28  17  63 CALM      29.35S
GILLETTE       FAIR      24  22  91 CALM      29.35F
HULETT         CLOUDY    32  32 100 MISG      29.36S
NEWCASTLE      CLOUDY    32  32 100 NW5       29.39R WCI  27

$$
WYZ014>020-022>026-101>103-211100-
CENTRAL WYOMING

CITY           SKY/WX    TMP DP  RH WIND       PRES   REMARKS
BIG PINEY      CLOUDY     6   4  91 CALM      29.36R
PINEDALE       CLOUDY     5   3  92 NW6       29.35S WCI  -6
DUBOIS         NOT AVBL
LANDER         FAIR      17  12  80 CALM      29.34S
RIVERTON       FOG      N/A N/A N/A NW7       29.35F VSB 1/4
CASPER         FAIR      21  16  81 VRB6      29.35F WCI  13
DOUGLAS        FAIR      16  13  88 CALM      29.37F

$$
WYZ021-027>030-104>119-211100-
SOUTHERN WYOMING

CITY           SKY/WX    TMP DP  RH WIND       PRES   REMARKS
EVANSTON       CLOUDY    15  10  80 E13       29.28S WCI   1
ROCK SPRINGS   FAIR      21  16  81 E5        29.31F WCI  15
RAWLINS        FAIR      16  12  84 E6        29.36F WCI   7
LARAMIE        FAIR       8   4  83 SE6       29.35F WCI  -2
CHEYENNE       FAIR      22  17  81 W8        29.37F WCI  12
TORRINGTON     FAIR      24  18  77 NW3       29.38F

$$




USA.gov is the U.S. government's official web portal to all federal, state and local government web resources and services.